Regional Weather Roundup
Issued by NWS Green Bay, WI

Home | Current Version | Previous Version | Graphics & Text | Print | Product List | Glossary Off
Versions: 1 2 3 4 5 6 7 8 9 10 11 12 13 14 15 16 17 18 19 20 21 22 23 24 25 26 27 28 29 30 31 32 33 34 35 36 37 38 39 40 41 42 43 44 45 46 47 48 49 50

000
ASUS43 KGRB 030311
RWRGRB

NORTH-CENTRAL AND NORTHEAST WISCONSIN REGIONAL WEATHER ROUNDUP
NATIONAL WEATHER SERVICE GREEN BAY WI
1000 PM CDT THU JUL 02 2015

WIZ005-009-010>012-018-019-030400-
NORTH CENTRAL WISCONSIN

CITY           SKY/WX    TMP DP  RH WIND       PRES   REMARKS
IRONWOOD       CLEAR     66  55  68 SW7       29.94S
MANITOWISH WTR CLEAR     61  55  82 CALM      30.00R
ARBOR VITAE    CLEAR     62  55  77 CALM      30.01R
EAGLE RIVER    PTCLDY    63  52  67 SW3       30.00S
LAND O LAKES   CLEAR     63  55  75 SW3       30.01S
RHINELANDER    CLEAR     62  51  67 SW5       30.02R
PHILLIPS       CLEAR     61  55  82 CALM      30.00S
ANTIGO         CLEAR     57  52  84 CALM      30.03R
TOMAHAWK       CLEAR     57  52  85 CALM      30.02R
MERRILL        CLEAR     61  53  76 CALM      30.02R
$$

WIZ013-073-030400-
NORTHEAST WISCONSIN

CITY           SKY/WX    TMP DP  RH WIND       PRES   REMARKS
IRON MOUNTAIN  CLEAR     63  49  60 VRB3      29.99R
MARINETTE      CLEAR     57  48  72 CALM      30.00S
OCONTO         CLEAR     54  54 100 CALM      30.00F
$$

WIZ017-030-035>037-045-030400-
CENTRAL WISCONSIN

CITY           SKY/WX    TMP DP  RH WIND       PRES   REMARKS
MEDFORD        CLEAR     53  51  93 S3        30.02R
WAUSAU         CLEAR     64  52  64 S6        30.00R
MOSINEE        CLEAR     61  54  77 S3        30.02S
MARSHFIELD     CLEAR     62  51  67 CALM      30.02R
WISC RAPIDS    CLEAR     58  52  80 CALM      30.03R
STEVENS POINT  CLEAR     58  52  79 CALM      30.02S
WAUPACA        CLEAR     58  53  82 CALM      30.02R
SHAWANO        CLEAR     61  52  72 S3        30.01S
CLINTONVILLE   CLEAR     59  48  67 CALM      30.01S
$$

WIZ038-039-048-051-030400-
FOX VALLEY

CITY           SKY/WX    TMP DP  RH WIND       PRES   REMARKS
NWS GREEN BAY  CLEAR     59  54  83 CALM      30.01S
APPLETON       PTCLDY    66  45  45 VRB3      30.02R
OSHKOSH        CLEAR     61  49  64 CALM      30.01R
FOND DU LAC    CLEAR     58  49  72 S5        30.02R
$$

WIZ022-050-052-030400-
EAST CENTRAL WISCONSIN

CITY           SKY/WX    TMP DP  RH WIND       PRES   REMARKS
STURGEON BAY   CLEAR     55  45  67 CALM      30.03F
MANITOWOC      CLEAR     56  50  80 MISG      30.02S
SHEBOYGAN      CLEAR     54  47  77 CALM      30.02R
$$

LMZ563-521-522-541>543-030400-
LAKESHORE

STATION/POSITION TIME  TEMP    WIND        PRES    VSBY  WAVE
                       AIR SEA DIR/SP/G                  HT/PER
                 (UTC) (F)     (DEG/KT/KT) (MB)    (MI)  (FT/S)
SHEBOYGAN LKSHOR 0300   59      20/  5/  6 1016.9R
KEWAUNEE LKSHORE 0200   59      CALM  /  1 1015.8F
ALGOMA MARINA    0240             CALM       N/A
NORTHPORT PIER   0200   60     200/  4/  6 1015.9S
N MID LAKE BUOY  0250   55 50  250/  4/  6 1016.2R         0
CHAMBERS ISLAND  0200   60     140/  2/  4 1015.9F
MENOMINEE LKSHOR 0200   68     170/  5/  8 1016.4F
$$



USA.gov is the U.S. government's official web portal to all federal, state and local government web resources and services.